Overview Statistics Trail Chart Weather Telemetry Raw packets
 

This is the latest recevied weather packets stored in our database for station/object K6CEG. If no packets are shown the sender has not sent any weather packets the latest 10 day(s).

<< 47 48 49 50 51 52 53 >>
Time Temp. Humidity Pressure Rain* Wind** Luminosity Snow
1788360558 17.78° C 73% 1018.3 hPa 0 mm - 81 W/m² -
1788360254 17.22° C 74% 1018.3 hPa 0 mm - 48 W/m² -
1788359954 16.67° C 74% 1018.3 hPa 0 mm - 30 W/m² -
1788359649 16.67° C 75% 1018.2 hPa 0 mm - 24 W/m² -
1788359344 16.11° C 75% 1018.1 hPa 0 mm - 23 W/m² -
1788359041 16.11° C 76% 1018.1 hPa 0 mm - 22 W/m² -
1788358736 15.56° C 76% 1018 hPa 0 mm - 19 W/m² -
1788358431 15.56° C 76% 1017.9 hPa 0 mm - 18 W/m² -
1788358130 15.56° C 77% 1017.7 hPa 0 mm - 16 W/m² -
1788357826 15.56° C 77% 1017.7 hPa 0 mm - 13 W/m² -
1788357530 15° C 77% 1017.6 hPa 0 mm - 10 W/m² -
1788357221 15° C 76% 1017.5 hPa 0 mm - 9 W/m² -
1788356920 15.56° C 76% 1017.4 hPa 0 mm - 7 W/m² -
1788356616 15.56° C 76% 1017.5 hPa 0 mm - 5 W/m² -
1788356311 15.56° C 75% 1017.5 hPa 0 mm - 3 W/m² -
1788356011 15.56° C 75% 1017.6 hPa 0 mm - 2 W/m² -
1788355706 15.56° C 76% 1017.6 hPa 0 mm - 1 W/m² -
1788355401 15.56° C 77% 1017.6 hPa 0 mm - 0 W/m² -
1788355097 15° C 77% 1017.5 hPa 0 mm - 0 W/m² -
1788354794 15° C 76% 1017.4 hPa 0 mm - 0 W/m² -
1788354493 15.56° C 76% 1017.4 hPa 0 mm - 0 W/m² -
1788354189 15.56° C 75% 1017.6 hPa 0 mm - 0 W/m² -
1788353884 15.56° C 75% 1017.6 hPa 0 mm - 0 W/m² -
1788353579 15.56° C 75% 1017.5 hPa 0 mm - 0 W/m² -
1788353276 16.11° C 75% 1017.6 hPa 0 mm - 0 W/m² -

* Rain latest hour (hover to see other rain measurements)
** Current wind speed in m/s (hover to see current wind gust speed)